Regional Weather Roundup
Issued by NWS

Home | Current Version | Previous Version | Text Only | Print | Product List | Glossary Off
Versions: 1 2 3 4 5 6 7 8 9 10 11 12 13 14 15 16 17 18 19 20 21 22 23 24 25 26 27 28 29 30 31 32 33 34 35 36 37 38 39 40 41 42 43 44 45 46 47 48 49 50

000
ASUS43 KBIS 290720
RWRND

NORTH DAKOTA REGIONAL WEATHER ROUNDUP
NATIONAL WEATHER SERVICE BISMARCK ND
100 AM CST SAT NOV 29 2014

NOTE: "FAIR" INDICATES FEW OR NO CLOUDS BELOW 12,000 FEET WITH NO
SIGNIFICANT WEATHER AND/OR OBSTRUCTIONS TO VISIBILITY.


NDZ001>003-009>011-017-290800-
NORTHWEST NORTH DAKOTA

CITY           SKY/WX    TMP DP  RH WIND       PRES   REMARKS
WILLISTON      CLOUDY    22  17  81 N14       29.46S WCI   9
MINOT          CLOUDY    10   6  84 N8        29.40F WCI  -2
MINOT AFB      MOCLDY    10   9  92 E6        29.41F WCI   1
$$

NDZ018>021-031>035-040>046-290800-
SOUTHWEST NORTH DAKOTA

CITY           SKY/WX    TMP DP  RH WIND       PRES   REMARKS
BISMARCK       CLOUDY    22  18  85 E5        29.39F WCI  16
DICKINSON      CLOUDY    40  31  70 NW14      29.34R
GARRISON         N/A     18  15  88 VRB5      29.38F WCI  11
HETTINGER ARPT PTCLDY    37  28  70 SW3       29.38F
$$

NDZ004>008-012>016-024-026-027-054-290800-
NORTHEAST NORTH DAKOTA

CITY           SKY/WX    TMP DP  RH WIND       PRES   REMARKS
GRAND FORKS    CLOUDY    18  13  80 S9        29.52F WCI   7
GRND FRKS AFB  CLOUDY    17  14  89 S6        29.51F WCI   8
DEVILS LAKE    MOCLDY    16   7  67 S5        29.42F WCI   9
$$

NDZ022-023-025-028>030-036>039-047>053-290800-
SOUTHEAST NORTH DAKOTA

CITY           SKY/WX    TMP DP  RH WIND       PRES   REMARKS
FARGO          CLOUDY    21  16  81 S18       29.53F WCI   6
JAMESTOWN      PTCLDY    16  12  84 SE9       29.44F WCI   4
$$



USA.gov is the U.S. government's official web portal to all federal, state and local government web resources and services.